Find Starlink 3858

NORAD ID: 52553 Int'l Des: 2022-051 Owner: SPXS Country: US Constellation: starlink operational
LEOCIRCULAR

当前视图

正在加载3D地球...

About Starlink 3858

Starlink 3858 (NORAD 52553) is a starlink constellation satellite (v1.5) launched May 13, 2022 by SPXS of US. It operates in LEO, CIRCULAR orbit with a mass of 297.00 kg.

关于 Starlink 3858

正在加载描述...

即将过境

Passes for default location (London). Set your location on the main map for personalized predictions.

高度历史

Loading altitude history...

两行轨道根数

1 52553U 22051W 26169.93042416 .00873716 40872-3 11890-2 0 9990
2 52553 53.2196 15.2280 0002799 36.7169 323.4056 16.05777030227005
Epoch: Jun 18, 2026 • Age: 4 hours

当前状态

高度 259.2 km
速度 7.75 km/s
星下点 21.48°N, 119.14°W
发射日期 May 13, 2022
运行时间 4 years
类型 internet

技术详情

分类 Payload
质量 297.00 kg
干质量 275.00 kg
总质量 297.00 kg
长度 0.20 m
直径 2.80 m
跨度 9.00 m
形状 Box + pan
制造商 SPXS
平台类型 Starlink
阶段状态 In Orbit
所有者/国家 SPXS/US

Most Searched